Time,TemperatureF,DewpointF,PressureIn,WindDirection,WindDirectionDegrees,WindSpeedMPH,WindSpeedGustMPH,Humidity,HourlyPrecipIn,Conditions,Clouds,dailyrainin,SoftwareType,DateUTC
2013-07-30 00:06:00,64.3,63.0,30.04,SSE,166,0.0,0.0,95,0.00,,,0.00,weatherlink.com 1.10,2013-07-30 04:06:00,
2013-07-30 00:21:00,64.0,63.0,30.03,SSE,166,0.0,0.0,95,0.00,,,0.00,weatherlink.com 1.10,2013-07-30 04:21:00,
2013-07-30 00:36:00,63.5,62.0,30.03,SSE,166,0.0,0.0,95,0.00,,,0.00,weatherlink.com 1.10,2013-07-30 04:36:00,
2013-07-30 00:51:00,63.0,62.0,30.03,SSE,167,0.0,0.0,95,0.00,,,0.00,weatherlink.com 1.10,2013-07-30 04:51:00,
2013-07-30 01:06:00,62.6,61.0,30.03,SSE,167,0.0,0.0,95,0.00,,,0.00,weatherlink.com 1.10,2013-07-30 05:06:00,
2013-07-30 01:21:00,62.2,61.0,30.04,SSE,166,0.0,0.0,95,0.00,,,0.00,weatherlink.com 1.10,2013-07-30 05:21:00,
2013-07-30 01:51:00,61.6,61.0,30.03,SSE,167,0.0,0.0,96,0.00,,,0.00,weatherlink.com 1.10,2013-07-30 05:51:00,
2013-07-30 02:21:00,60.9,59.0,30.03,SSE,166,0.0,0.0,94,0.00,,,0.00,weatherlink.com 1.10,2013-07-30 06:21:00,
2013-07-30 02:36:00,61.8,58.0,30.03,North,354,0.0,1.0,88,0.00,,,0.00,weatherlink.com 1.10,2013-07-30 06:36:00,
2013-07-30 02:51:00,62.3,58.0,30.03,North,354,0.0,0.0,86,0.00,,,0.00,weatherlink.com 1.10,2013-07-30 06:51:00,
2013-07-30 03:06:00,62.3,58.0,30.03,North,354,0.0,0.0,85,0.00,,,0.00,weatherlink.com 1.10,2013-07-30 07:06:00,
2013-07-30 03:36:00,61.8,57.0,30.03,North,354,0.0,0.0,84,0.00,,,0.00,weatherlink.com 1.10,2013-07-30 07:36:00,
2013-07-30 04:06:00,61.4,57.0,30.03,North,9,0.0,1.0,84,0.00,,,0.00,weatherlink.com 1.10,2013-07-30 08:06:00,
2013-07-30 04:21:00,61.3,56.0,30.04,NW,314,1.0,2.0,83,0.00,,,0.00,weatherlink.com 1.10,2013-07-30 08:21:00,
2013-07-30 04:36:00,62.1,56.0,30.04,North,357,0.0,1.0,80,0.00,,,0.00,weatherlink.com 1.10,2013-07-30 08:36:00,
2013-07-30 04:51:00,61.9,56.0,30.04,North,1,3.0,3.0,80,0.00,,,0.00,weatherlink.com 1.10,2013-07-30 08:51:00,
2013-07-30 05:06:00,61.4,56.0,30.04,North,360,0.0,1.0,81,0.00,,,0.00,weatherlink.com 1.10,2013-07-30 09:06:00,
2013-07-30 05:21:00,60.6,56.0,30.04,North,360,0.0,1.0,84,0.00,,,0.00,weatherlink.com 1.10,2013-07-30 09:21:00,
2013-07-30 05:36:00,59.8,55.0,30.05,North,360,0.0,0.0,85,0.00,,,0.00,weatherlink.com 1.10,2013-07-30 09:36:00,
2013-07-30 05:51:00,59.1,56.0,30.05,North,360,0.0,0.0,88,0.00,,,0.00,weatherlink.com 1.10,2013-07-30 09:51:00,
2013-07-30 06:06:00,58.7,56.0,30.06,North,1,0.0,0.0,89,0.00,,,0.00,weatherlink.com 1.10,2013-07-30 10:06:00,
2013-07-30 06:21:00,58.5,56.0,30.06,North,1,0.0,0.0,90,0.00,,,0.00,weatherlink.com 1.10,2013-07-30 10:21:00,
2013-07-30 06:36:00,58.2,55.0,30.05,North,1,0.0,0.0,90,0.00,,,0.00,weatherlink.com 1.10,2013-07-30 10:36:00,
2013-07-30 06:51:00,58.6,55.0,30.06,North,1,0.0,0.0,89,0.00,,,0.00,weatherlink.com 1.10,2013-07-30 10:51:00,
2013-07-30 07:06:00,60.3,56.0,30.06,NW,315,0.0,2.0,85,0.00,,,0.00,weatherlink.com 1.10,2013-07-30 11:06:00,
2013-07-30 07:22:00,61.4,56.0,30.06,NNW,328,0.0,2.0,83,0.00,,,0.00,weatherlink.com 1.10,2013-07-30 11:22:00,
2013-07-30 07:37:00,61.8,57.0,30.06,North,1,0.0,0.0,83,0.00,,,0.00,weatherlink.com 1.10,2013-07-30 11:37:00,
2013-07-30 07:52:00,62.8,57.0,30.06,East,80,0.0,1.0,82,0.00,,,0.00,weatherlink.com 1.10,2013-07-30 11:52:00,
2013-07-30 08:07:00,63.6,58.0,30.07,North,356,0.0,1.0,81,0.00,,,0.00,weatherlink.com 1.10,2013-07-30 12:07:00,
2013-07-30 08:22:00,64.6,58.0,30.07,North,1,2.0,4.0,80,0.00,,,0.00,weatherlink.com 1.10,2013-07-30 12:22:00,
2013-07-30 08:37:00,65.3,58.0,30.07,NNW,346,0.0,2.0,78,0.00,,,0.00,weatherlink.com 1.10,2013-07-30 12:37:00,
2013-07-30 08:52:00,66.3,59.0,30.08,North,357,0.0,5.0,77,0.00,,,0.00,weatherlink.com 1.10,2013-07-30 12:52:00,
2013-07-30 09:07:00,67.0,59.0,30.08,NNW,348,0.0,5.0,75,0.00,,,0.00,weatherlink.com 1.10,2013-07-30 13:07:00,
2013-07-30 09:22:00,67.7,59.0,30.08,NNE,19,0.0,4.0,74,0.00,,,0.00,weatherlink.com 1.10,2013-07-30 13:22:00,
2013-07-30 09:37:00,68.4,59.0,30.08,NW,316,1.0,5.0,73,0.00,,,0.00,weatherlink.com 1.10,2013-07-30 13:37:00,
2013-07-30 09:52:00,69.0,60.0,30.08,NNE,18,2.0,3.0,72,0.00,,,0.00,weatherlink.com 1.10,2013-07-30 13:52:00,
2013-07-30 10:07:00,70.0,61.0,30.08,SW,236,3.0,6.0,73,0.00,,,0.00,weatherlink.com 1.10,2013-07-30 14:07:00,
2013-07-30 10:22:00,71.0,60.0,30.09,NE,51,1.0,7.0,68,0.00,,,0.00,weatherlink.com 1.10,2013-07-30 14:22:00,
2013-07-30 10:37:00,71.9,61.0,30.09,NNW,327,0.0,7.0,68,0.00,,,0.00,weatherlink.com 1.10,2013-07-30 14:37:00,
2013-07-30 10:52:00,72.6,59.0,30.09,North,3,2.0,6.0,62,0.00,,,0.00,weatherlink.com 1.10,2013-07-30 14:52:00,
2013-07-30 11:07:00,74.2,62.0,30.08,NNE,18,3.0,3.0,65,0.00,,,0.00,weatherlink.com 1.10,2013-07-30 15:07:00,
2013-07-30 11:22:00,74.5,60.0,30.08,SW,226,2.0,4.0,60,0.00,,,0.00,weatherlink.com 1.10,2013-07-30 15:22:00,
2013-07-30 11:37:00,75.6,60.0,30.07,South,169,2.0,3.0,59,0.00,,,0.00,weatherlink.com 1.10,2013-07-30 15:37:00,
2013-07-30 11:52:00,77.4,62.0,30.07,North,5,3.0,3.0,59,0.00,,,0.00,weatherlink.com 1.10,2013-07-30 15:52:00,
2013-07-30 12:07:00,77.2,58.0,30.07,NW,316,0.0,5.0,52,0.00,,,0.00,weatherlink.com 1.10,2013-07-30 16:07:00,
2013-07-30 12:22:00,77.1,57.0,30.07,SW,236,0.0,9.0,50,0.00,,,0.00,weatherlink.com 1.10,2013-07-30 16:22:00,
2013-07-30 12:37:00,77.0,58.0,30.07,NNW,328,4.0,7.0,53,0.00,,,0.00,weatherlink.com 1.10,2013-07-30 16:37:00,
2013-07-30 12:52:00,77.0,56.0,30.07,NNW,327,4.0,7.0,49,0.00,,,0.00,weatherlink.com 1.10,2013-07-30 16:52:00,
2013-07-30 13:07:00,77.7,58.0,30.06,NW,321,0.0,7.0,51,0.00,,,0.00,weatherlink.com 1.10,2013-07-30 17:07:00,
2013-07-30 13:22:00,78.1,58.0,30.06,NNE,13,0.0,8.0,51,0.00,,,0.00,weatherlink.com 1.10,2013-07-30 17:22:00,
2013-07-30 13:37:00,80.3,58.0,30.06,NNW,335,0.0,4.0,47,0.00,,,0.00,weatherlink.com 1.10,2013-07-30 17:37:00,
2013-07-30 13:53:00,78.9,58.0,30.06,WSW,256,0.0,6.0,49,0.00,,,0.00,weatherlink.com 1.10,2013-07-30 17:53:00,
2013-07-30 14:07:00,80.3,60.0,30.05,SSW,209,2.0,4.0,50,0.00,,,0.00,weatherlink.com 1.10,2013-07-30 18:07:00,
2013-07-30 14:23:00,79.8,58.0,30.05,SW,218,1.0,6.0,47,0.00,,,0.00,weatherlink.com 1.10,2013-07-30 18:23:00,
2013-07-30 14:38:00,78.0,59.0,30.05,NW,321,0.0,4.0,53,0.00,,,0.00,weatherlink.com 1.10,2013-07-30 18:38:00,
2013-07-30 14:53:00,77.8,60.0,30.05,North,9,1.0,8.0,54,0.00,,,0.00,weatherlink.com 1.10,2013-07-30 18:53:00,
2013-07-30 15:08:00,77.8,59.0,30.04,NNW,345,0.0,7.0,53,0.00,,,0.00,weatherlink.com 1.10,2013-07-30 19:08:00,
2013-07-30 15:23:00,79.2,61.0,30.04,NNW,343,0.0,3.0,53,0.00,,,0.00,weatherlink.com 1.10,2013-07-30 19:23:00,
2013-07-30 15:38:00,79.2,60.0,30.04,North,357,2.0,6.0,52,0.00,,,0.00,weatherlink.com 1.10,2013-07-30 19:38:00,
2013-07-30 15:53:00,78.8,59.0,30.03,NNW,338,2.0,5.0,51,0.00,,,0.00,weatherlink.com 1.10,2013-07-30 19:53:00,
2013-07-30 16:08:00,78.2,60.0,30.03,NW,314,1.0,6.0,53,0.00,,,0.00,weatherlink.com 1.10,2013-07-30 20:08:00,
2013-07-30 16:23:00,78.3,58.0,30.03,NNW,329,0.0,4.0,50,0.00,,,0.00,weatherlink.com 1.10,2013-07-30 20:23:00,
2013-07-30 16:38:00,77.6,60.0,30.02,NNW,335,0.0,4.0,54,0.00,,,0.00,weatherlink.com 1.10,2013-07-30 20:38:00,
2013-07-30 16:53:00,76.7,60.0,30.02,SSE,165,0.0,3.0,56,0.00,,,0.00,weatherlink.com 1.10,2013-07-30 20:53:00,
2013-07-30 17:08:00,76.2,58.0,30.02,NNW,340,0.0,5.0,54,0.00,,,0.00,weatherlink.com 1.10,2013-07-30 21:08:00,
2013-07-30 17:23:00,75.9,56.0,30.02,North,9,1.0,4.0,51,0.00,,,0.00,weatherlink.com 1.10,2013-07-30 21:23:00,
2013-07-30 17:38:00,75.9,57.0,30.02,SSW,207,0.0,4.0,53,0.00,,,0.00,weatherlink.com 1.10,2013-07-30 21:38:00,
2013-07-30 17:53:00,75.7,56.0,30.03,North,352,3.0,5.0,51,0.00,,,0.00,weatherlink.com 1.10,2013-07-30 21:53:00,
2013-07-30 18:08:00,75.5,57.0,30.03,North,6,1.0,3.0,53,0.00,,,0.00,weatherlink.com 1.10,2013-07-30 22:08:00,
2013-07-30 18:23:00,75.1,61.0,30.03,NW,316,1.0,1.0,62,0.00,,,0.00,weatherlink.com 1.10,2013-07-30 22:23:00,
2013-07-30 18:38:00,74.3,57.0,30.04,NNW,340,1.0,2.0,56,0.00,,,0.00,weatherlink.com 1.10,2013-07-30 22:38:00,
2013-07-30 18:53:00,73.1,61.0,30.04,NNW,338,0.0,1.0,66,0.00,,,0.00,weatherlink.com 1.10,2013-07-30 22:53:00,
2013-07-30 19:08:00,72.0,60.0,30.04,NNW,338,0.0,0.0,67,0.00,,,0.00,weatherlink.com 1.10,2013-07-30 23:08:00,
2013-07-30 19:23:00,71.0,59.0,30.05,NNW,339,0.0,0.0,66,0.00,,,0.00,weatherlink.com 1.10,2013-07-30 23:23:00,
2013-07-30 19:38:00,70.5,60.0,30.05,NNW,339,0.0,0.0,69,0.00,,,0.00,weatherlink.com 1.10,2013-07-30 23:38:00,
2013-07-30 19:53:00,69.6,60.0,30.06,NNW,338,0.0,0.0,71,0.00,,,0.00,weatherlink.com 1.10,2013-07-30 23:53:00,
2013-07-30 20:08:00,68.4,59.0,30.07,NNW,339,0.0,0.0,72,0.00,,,0.00,weatherlink.com 1.10,2013-07-31 00:08:00,
2013-07-30 20:23:00,67.4,59.0,30.06,NNW,339,0.0,0.0,75,0.00,,,0.00,weatherlink.com 1.10,2013-07-31 00:23:00,
2013-07-30 20:38:00,66.6,60.0,30.07,NNW,338,0.0,0.0,78,0.00,,,0.00,weatherlink.com 1.10,2013-07-31 00:38:00,
2013-07-30 20:53:00,65.7,60.0,30.07,NNW,339,0.0,0.0,82,0.00,,,0.00,weatherlink.com 1.10,2013-07-31 00:53:00,
2013-07-30 21:08:00,64.9,60.0,30.08,NNW,339,0.0,0.0,85,0.00,,,0.00,weatherlink.com 1.10,2013-07-31 01:08:00,
2013-07-30 21:23:00,64.4,60.0,30.08,NNW,339,0.0,0.0,85,0.00,,,0.00,weatherlink.com 1.10,2013-07-31 01:23:00,
2013-07-30 21:38:00,64.1,60.0,30.08,NNW,339,0.0,0.0,86,0.00,,,0.00,weatherlink.com 1.10,2013-07-31 01:38:00,
2013-07-30 21:53:00,63.9,60.0,30.08,NNW,338,0.0,0.0,86,0.00,,,0.00,weatherlink.com 1.10,2013-07-31 01:53:00,
2013-07-30 22:08:00,63.6,60.0,30.08,NNW,339,0.0,0.0,87,0.00,,,0.00,weatherlink.com 1.10,2013-07-31 02:08:00,
2013-07-30 22:23:00,63.3,60.0,30.08,NNW,339,0.0,0.0,88,0.00,,,0.00,weatherlink.com 1.10,2013-07-31 02:23:00,
2013-07-30 22:38:00,63.0,60.0,30.08,NNW,339,0.0,0.0,89,0.00,,,0.00,weatherlink.com 1.10,2013-07-31 02:38:00,
2013-07-30 22:53:00,62.6,59.0,30.08,NNW,338,0.0,0.0,89,0.00,,,0.00,weatherlink.com 1.10,2013-07-31 02:53:00,
2013-07-30 23:08:00,62.3,59.0,30.09,NNW,339,0.0,0.0,89,0.00,,,0.00,weatherlink.com 1.10,2013-07-31 03:08:00,
2013-07-30 23:23:00,62.5,60.0,30.09,NNW,339,0.0,0.0,90,0.00,,,0.00,weatherlink.com 1.10,2013-07-31 03:23:00,
2013-07-30 23:38:00,62.6,60.0,30.08,NNW,338,0.0,0.0,90,0.00,,,0.00,weatherlink.com 1.10,2013-07-31 03:38:00,
2013-07-30 23:53:00,62.2,59.0,30.08,NNW,338,0.0,0.0,90,0.00,,,0.00,weatherlink.com 1.10,2013-07-31 03:53:00,